Back to catalog

USA 40 R/B DEB

AliveUNKNOWN
NORAD 23159·DEBRIS·🇺🇸 United States

Launched Aug 8, 1989 from Cape Canaveral Space Force Station

Loading…

Next Passes (next 24 hours)

TLE

FreshSource: Space-Track

Epoch: Sep 14, 2026, 14:43 UTC

1 23159U 89061N   26257.61343287  .00040128  00000-0  85818-2 0  9997
2 23159  56.9399 107.2806 1537133 157.0753 210.7017 11.99594445269745

Track USA 40 R/B DEB in real time with AllMySat

Download on the App Store